Вернуться в каталог

COSMOS 1975

АктивенВоенныеPO
NORAD 19573·PAYLOAD·🇷🇺 Russia

Запущен Oct 11, 1988 с Plesetsk Cosmodrome

Loading…

Ближайшие Пролёты (ближайшие 24 часа)

TLE

СвежийSource: Space-Track

Эпоха: Sep 14, 2026, 08:54 UTC

1 19573U 88093A   26257.37116803  .00005182  00000-0  17543-3 0  9993
2 19573  82.5161 287.9313 0010025 215.1909 144.8670 15.30310105 48245

Отслеживайте COSMOS 1975 в реальном времени с AllMySat

Download on the App Store